Regional Weather Roundup
Issued by NWS

Home | Current Version | Previous Version | Graphics & Text | Print | Product List | Glossary On
Versions: 1 2 3 4 5 6 7 8 9 10 11 12 13 14 15 16 17 18 19 20 21 22 23 24 25 26 27
000
ASUS45 KTFX 250610
RWRMT
MONTANA REGIONAL WEATHER ROUNDUP
NATIONAL WEATHER SERVICE GREAT FALLS MT
1200 AM MDT SAT MAR 25 2017

NOTE: "FAIR" INDICATES FEW OR NO CLOUDS BELOW 12000 FEET WITH NO
SIGNIFICANT WEATHER AND/OR OBSTRUCTIONS TO VISIBILITY.

MTZ001>007-043-250700-
WEST OF THE DIVIDE

CITY           SKY/WX    TMP DP  RH WIND       PRES   REMARKS
KALISPELL      CLOUDY    39  35  86 S3        29.89R
MISSOULA       CLOUDY    42  36  79 N9        29.97R
BUTTE          CLOUDY    42  33  70 VRB3      29.92F
MULLAN PASS    CLOUDY    28  28 100 CALM      29.93R
ANACONDA         N/A     41  34  75 S10       29.90S
DEER LODGE       N/A     45  36  70 N12G17    29.93R
EUREKA           N/A     45  34  65 SE10G17   29.87R
HAMILTON         N/A     43  37  81 CALM      29.95R
RONAN            N/A     44  35  70 CALM      29.99R
$$

MTZ008-052>055-250700-
SOUTHWEST MONTANA

CITY           SKY/WX    TMP DP  RH WIND       PRES   REMARKS
BOZEMAN        CLOUDY    50  29  44 SW10      29.87F
DILLON         CLOUDY    46  32  58 S16G29    29.92R
W YELLOWSTONE  CLOUDY    34  32  93 E6        30.04S WCI  29
ENNIS          CLOUDY    45  30  57 S26G35    29.98S
THREE FORKS      N/A     50  50 100 S21       29.88S
$$

MTZ009-010-012-014-046-048-049-054-250700-
EAST SLOPES AND CENTRAL MONTANA

CITY           SKY/WX    TMP DP  RH WIND       PRES   REMARKS
CUT BANK       CLOUDY    41  30  65 W20       29.77R
GREAT FALLS    CLOUDY    46  31  55 S16       29.82R
MALMSTROM AFB  CLOUDY    48  33  54 SW22G30   29.82R
HELENA         PTCLDY    45  35  68 NW8       29.86S
AUGUSTA          N/A     40  28  62 S3        29.81R
BOWMANS CRNR     N/A     39  31  72 S12       29.82R WCI  31
CHOTEAU          N/A     43  30  61 S6        29.82R
FAIRFIELD        N/A     45  29  53 SW22      29.79R
POWER          MOCLDY    44  30  58 SW18      29.79R
RAYNESFORD       N/A     49  32  53 SW20G28   29.81S
$$

MTZ011-013-016-021-045-047-050-051-250700-
NORTH CENTRAL MONTANA

CITY           SKY/WX    TMP DP  RH WIND       PRES   REMARKS
HAVRE          CLOUDY    50  32  50 SW8       29.73R
LEWISTOWN      CLOUDY    50  24  36 SW14      29.80S
N BAR RANCH      N/A     54  21  28 W23G30    29.81S
CHINOOK          N/A     52  30  43 SW10      29.73R
DENTON         MOCLDY    50  27  40 W15       29.76R
FORT BENTON      N/A     54  34  47 MISG      29.79R
GEYSER         MOCLDY    49  31  51 W25G33    29.81R
GRASS RANGE    MOCLDY    55  23  29 W17G28    29.76S
STANFORD       MOCLDY    49  28  44 NW14      29.81R
WINIFRED       CLOUDY    52  25  34 NW9       29.78R
$$

MTZ017>020-022>027-061-062-250700-
NORTHEAST MONTANA

CITY           SKY/WX    TMP DP  RH WIND       PRES   REMARKS
GLASGOW        CLOUDY    52  29  41 SE14      29.76F
JORDAN           N/A     52  32  46 S14       29.76F
SIDNEY         MOCLDY    47  33  58 S12       29.90S
WOLF POINT     CLOUDY    51  34  52 SE8       29.81F
MALTA          CLOUDY    54  34  47 S10G17    29.69S
PLENTYWOOD       N/A     41  36  81 SE14G20   29.88F
POPLAR           N/A     48  34  57 SE16      29.83F VSB 3/4
$$

MTZ028>42-056>058-250700-
SOUTHCENTRAL AND SOUTHEAST MONTANA

CITY           SKY/WX    TMP DP  RH WIND       PRES   REMARKS
BAKER          CLOUDY    43  33  68 SE21      29.90F
BILLINGS       CLOUDY    54  31  41 W13       29.82R
LIVINGSTON     CLOUDY    51  27  39 SW35G47   29.83S
MILES CITY     MOCLDY    50  31  48 SE15      29.80F
BIG TIMBER     CLEAR     50  27  40 SW17      29.87S
FORSYTH          N/A     54  32  43 SE8       29.79R
HARLOWTON      MOCLDY    49  23  36 W5        29.82S
LAUREL           N/A     53  28  38 SW9       29.84R
$$

REGIONAL REPORTS...DAKOTAS

CITY           SKY/WX    TMP DP  RH WIND       PRES   REMARKS
WILLISTON      CLOUDY    43  34  70 SE16G22   29.94F
MINOT          CLOUDY    32  30  92 SE13      30.08F WCI  22
DICKINSON      CLOUDY    36  30  79 SE15      29.98F WCI  27
BEACH            N/A    N/A N/A N/A MISG        N/A
TIOGA            N/A     34  34 100 SE15G21   29.99F WCI  24
WATFORD CITY     N/A     41  34  75 SE20      29.95F
BISMARCK       CLEAR     30  28  92 E8        30.14S WCI  22
GRAND FORKS    CLEAR     29  28  96 NW6       30.22S WCI  23
FARGO          CLEAR     29  27  92 CALM      30.22R
BUFFALO SD       N/A     43  33  68 SE25      29.88F
RAPID CITY     CLEAR     38  29  70 S13       30.05F WCI  30
$$

REGIONAL REPORTS...WYOMING/IDAHO/WASHINGTON

CITY           SKY/WX    TMP DP  RH WIND       PRES   REMARKS
GILLETTE       CLOUDY    44  28  53 S20       29.91F
SHERIDAN       CLOUDY    41  35  79 NW3       29.83S
BUFFALO WY     CLOUDY    48  29  47 SE15      29.86F
CODY           CLEAR     51  19  28 W10G20    29.93R
YELLOWSTONE LA   N/A     30  27  88 CALM      30.07F
IDAHO FALLS    LGT RAIN  46  36  68 S14       30.06R
SALMON         CLOUDY    45  36  70 S12       29.94S
BOISE          CLOUDY    44  40  85 SE6       30.07R
SPOKANE        MOCLDY    42  39  89 S9        29.96R
$$

REGIONAL REPORTS...ALBERTA

CITY           SKY/WX    TMP DP  RH WIND       PRES   REMARKS
EDMONTON       MOCLDY    30  28  93 N8        29.64F WCI  23
CALGARY        CLOUDY    43  23  45 W16G23    29.60S
LETHBRIDGE     CLEAR     39  32  75 SW15      29.69S WCI  31
MEDICINE HAT   CLOUDY    50  32  50 S16G22    29.67R
WATERTON GATE    N/A     36  32  87 SW7         N/A  WCI  30
CARDSTON         N/A     41  30  65 SW18G32     N/A
MILK RIVER       N/A     43  32  65 W17G26      N/A
$$

REGIONAL REPORTS...SASKATCHEWAN

CITY           SKY/WX    TMP DP  RH WIND       PRES   REMARKS
SWIFT CURRENT  CLOUDY    48  34  57 SE16      29.64F
REGINA         CLOUDY    34  30  86 SE25G33   29.86F WCI  21
SASKATOON      LGT RAIN  36  34  93 SE16G24   29.79F WCI  26
CYPRESS HILLS    N/A     46  25  42 W8          N/A
VAL MARIE        N/A     52  30  43 S24G31      N/A
ROCKGLEN         N/A     41  34  75 SE15        N/A
ASSINIBOIA       N/A     36  32  87 E7          N/A  WCI  30
$$




USA.gov is the U.S. government's official web portal to all federal, state and local government web resources and services.